Regional Weather Roundup
Issued by NWS

Home | Current Version | Previous Version | Text Only | Print | Product List | Glossary On
Versions: 1 2 3 4 5 6 7 8 9 10 11 12 13 14 15 16 17 18 19 20 21 22 23 24 25 26 27 28 29 30 31 32 33 34 35 36 37 38 39 40 41 42 43 44 45 46 47 48 49 50
000
ASUS43 KMPX 230301
RWRMN
WEATHER ROUNDUP FOR MINNESOTA
NATIONAL WEATHER SERVICE TWIN CITIES/CHANHASSEN MN
1000 PM CDT WED MAR 22 2017


NOTE: "FAIR" INDICATES FEW OR NO CLOUDS BELOW 12,000 FEET WITH NO
SIGNIFICANT WEATHER AND/OR OBSTRUCTIONS TO VISIBILITY. N/A MEANS
CURRENT SKY AND/OR WEATHER CONDITIONS ARE NOT AVAILABLE.

MNZ060>063-068>070-230400-
   Twin Cities Metro

CITY           SKY/WX    TMP DP  RH WIND       PRES   REMARKS
TWIN CITIES    CLOUDY    37  13  37 SE14      30.30F
ST PAUL        CLOUDY    37  13  37 SE12      30.32F
CRYSTAL        CLOUDY    37  12  35 SE10      30.28F
BLAINE         CLOUDY    37  12  35 SE10G16   30.29F
LAKEVILLE      CLOUDY    34  18  51 SE8       30.29S WCI  27
EDEN PRAIRIE   CLOUDY    38  14  37 SE15      30.27F
SOUTH ST PAUL  CLOUDY    37  12  35 SE8       30.30F
LAKE ELMO      CLOUDY    36  14  41 SE8       30.32S
$$
MNZ001>005-007-008-013>017-022>024-027-028-230400-
   Northwest Minnesota

CITY           SKY/WX    TMP DP  RH WIND       PRES   REMARKS
BEMIDJI        CLOUDY    32  12  43 S14G21    30.17S WCI  22
HALLOCK        CLOUDY    32  23  69 S17       30.09S WCI  21
ROSEAU         CLOUDY    30  25  80 SE16      30.12F WCI  19
WARROAD        CLOUDY    30  23  74 SE13G18   30.15F WCI  20
THIEF RVR FALL   N/A    N/A N/A N/A MISG        N/A
CROOKSTON      CLOUDY    34  21  60 S17G26    30.10F WCI  23
FOSSTON        CLOUDY    30  16  55 SE16G22   30.12F WCI  19
DETROIT LAKES  CLOUDY    32  23  69 SE18G25   30.14S WCI  20
MOORHEAD       CLOUDY    34  21  60 S21G28    30.11F WCI  22
PARK RAPIDS    CLOUDY    32  16  51 SE23G32   30.17F WCI  19
MAHNOMEN       CLOUDY    32  20  62 SE17G25   30.11F WCI  21
$$
MNZ006-009>011-018-025>026-230400-
   North Central Minnesota

CITY           SKY/WX    TMP DP  RH WIND       PRES   REMARKS
BAUDETTE       CLOUDY    31  16  54 S17G23    30.17S WCI  19
FLAG ISLAND    CLOUDY    28  19  69 SE12      30.15S WCI  18
INTL FALLS     CLOUDY    33  10  38 SE9       30.21F WCI  25
WASKISH        CLOUDY    34  16  47 S10       30.19S WCI  26
BIG FORK       CLOUDY    34   9  35 S9G18     30.22F WCI  26
LONGVILLE      CLOUDY    34  10  37 S9G18     30.22S WCI  26
GRAND RAPIDS   FLURRIES  31  17  56 S23       30.26  WCI  18
CRANE LAKE     CLOUDY    30   9  40 CALM      30.28F
ORR            CLOUDY    32   9  37 SE7       30.23F WCI  26
COOK           CLOUDY    32  10  40 SE8       30.27S WCI  25
WALKER         CLOUDY    32  13  45 S12G20    30.19F WCI  23
$$
MNZ012-019>021-037-230400-
   Northeast Minnesota

CITY           SKY/WX    TMP DP  RH WIND       PRES   REMARKS
DULUTH         CLOUDY    27  20  75 E9        30.31S WCI  18
ELY            CLOUDY    27  12  54 SE7       30.30S WCI  19
HIBBING        CLOUDY    28  14  55 SE12      30.27S WCI  18
EVELETH        CLOUDY    30   7  37 SE12      30.30S WCI  20
DULUTH HARBOR  PTCLDY    34  27  75 NE9       30.36S WCI  26
TWO HARBORS    CLOUDY    30  21  69 E10       30.33S WCI  21
SILVER BAY     MOCLDY    27  21  80 E5        30.35S WCI  21
GRAND MARAIS     N/A     26  14  60 NE6       30.41F WCI  19
G MARAIS ARPRT CLOUDY    18   9  68 E5        30.33S WCI  11
$$
MNZ029>031-032-039>041-046>048-054>057-064-230400-
   West Central Minnesota

CITY           SKY/WX    TMP DP  RH WIND       PRES   REMARKS
FERGUS FALLS   CLOUDY    34  21  60 S20G29    30.18R WCI  22
WHEATON        CLOUDY    34  25  69 SE17      30.15F WCI  23
MORRIS         CLOUDY    34  25  69 SE22      30.14S WCI  22
ALEXANDRIA     CLOUDY    33  22  63 SE16      30.17F WCI  23
ELBOW LAKE     CLOUDY    33  22  63 E21G29    30.14S WCI  21
WADENA         CLOUDY    30  21  69 SE15      30.17F WCI  19
GLENWOOD       CLOUDY    34  23  64 SE18G26   30.18F WCI  23
APPLETON       CLOUDY    36  25  64 SE10G20   30.16R
BENSON         CLOUDY    37  21  52 S18       30.19R
ORTONVILLE     CLOUDY    34  25  69 SE15G23   30.14R WCI  24
MADISON        CLOUDY    37  28  70 SE18      30.15S
WILLMAR        CLOUDY    36  25  64 SE20G25   30.20F
$$
MNZ033>034-036-042>043-049>051-058-059-230400-
   Central Minnesota

CITY           SKY/WX    TMP DP  RH WIND       PRES   REMARKS
ST CLOUD       CLOUDY    35  17  47 SE13      30.25F WCI  26
SAUK CENTRE    CLOUDY    33  22  64 SE13      30.20F WCI  23
PAYNESVILLE      N/A     34  23  62 SE15G24   30.21F WCI  24
AITKIN         CLOUDY    36  10  35 S13G22    30.26R
PINE RIVER     CLOUDY    34  19  55 S18G26    30.25F WCI  23
BRAINERD       CLOUDY    32  17  54 SE9       30.25S WCI  24
STAPLES        CLOUDY    30  18  59 SE13G18   30.19F WCI  20
LONG PRAIRIE   CLOUDY    32  21  64 E9        30.21F WCI  24
LITTLE FALLS   CLOUDY    34  16  47 SE13      30.24F WCI  25
LITCHFIELD     CLOUDY    36  25  64 SE12      30.23F
BUFFALO        CLOUDY    36  16  44 SE9       30.27F
MAPLE LAKE     CLOUDY    36  22  56 SE7       30.27F
HUTCHINSON     CLOUDY    36  26  67 SE12      30.24F
$$
MNZ037-044-045-052-053-230400-
   East Central Minnesota

CITY           SKY/WX    TMP DP  RH WIND       PRES   REMARKS
PRINCETON      CLOUDY    37  12  35 SE7       30.29R
MORA           CLOUDY    34  14  44 SE6       30.31F WCI  29
CAMBRIDGE      CLOUDY    37  19  48 SE6       30.28F
RUSH CITY      CLOUDY    35  12  39 SE8       30.31F WCI  28
MOOSE LAKE     CLOUDY    34  12  40 SE3       30.29S
HINCKLEY       CLOUDY    34  14  44 SE6       30.31S WCI  29
CLOQUET        CLOUDY    28  18  64 E6        30.30F WCI  22
MCGREGOR       CLOUDY    34  12  40 SE8       30.28F WCI  27
$$
MNZ071>073-080-081-089-090-097-098-230400-
   Southwest Minnesota

CITY           SKY/WX    TMP DP  RH WIND       PRES   REMARKS
MONTEVIDEO     CLOUDY    36  25  64 S18       30.18S
GRANITE FALLS  CLOUDY    37  27  68 SE20      30.20R
CANBY          CLOUDY    37  28  69 SE17      30.15S
MARSHALL       CLOUDY    36  25  64 SE21      30.16F
REDWOOD FALLS  CLOUDY    36  24  62 SE17      30.20F
OLIVIA         MOCLDY    36  25  64 SE14G20   30.19F
PIPESTONE      CLOUDY    36  21  55 S17G25    30.11F
WINDOM         CLOUDY    36  25  64 SE17G24   30.19F
WORTHINGTON    CLOUDY    36  24  62 SE16      30.16F
JACKSON        CLOUDY    34  27  75 SE15G21   30.20F WCI  24
TRACY          CLOUDY    36  28  73 S15       30.17R
SLAYTON        CLOUDY    33  28  80 SE16      30.16S WCI  23
$$
MNZ065>067-074>077-082>085-091>093-230400-
   South Central Minnesota

CITY           SKY/WX    TMP DP  RH WIND       PRES   REMARKS
MANKATO        CLOUDY    36  22  56 SE14      30.27S
NEW ULM        CLOUDY    36  21  55 SE16      30.23F
ST JAMES       CLOUDY    36  27  69 SE13      30.24F
FAIRMONT       CLOUDY    36  24  62 SE16      30.24S
GLENCOE        CLOUDY    37  26  65 SE10      30.25F
FARIBAULT      CLOUDY    37  19  48 SE10      30.28S
OWATONNA       CLOUDY    37  18  44 SE15G22   30.27S
WASECA         CLOUDY    36  23  60 SE15      30.27F
ALBERT LEA     CLOUDY    36  19  51 SE13G18   30.26F
$$
MNZ078>079-086>088-094>096-230400-
   Southeast Minnesota

CITY           SKY/WX    TMP DP  RH WIND       PRES   REMARKS
ROCHESTER      CLOUDY    34  19  54 SE15      30.30F WCI  24
RED WING       CLOUDY    37   9  30 SE10G17   30.32F
STANTON        CLOUDY    37  17  43 SE7       30.29S
DODGE CENTER   CLOUDY    34  21  60 SE13      30.28F WCI  25
WINONA         MOCLDY    36  12  38 SE7       30.37S
AUSTIN         CLOUDY    36  19  51 SE12      30.29R
PRESTON        CLOUDY    34  14  43 SE12      30.32F WCI  26
$$
ABBREVIATIONS USED IN REMARKS
   TC - TEMPERATURES IN CELSIUS
  WCI - WIND CHILL INDEX
   HX - HEAT INDEX
  VSB - VISIBILITY
$$




USA.gov is the U.S. government's official web portal to all federal, state and local government web resources and services.